,,Stat6,,Stat2,,Stat8,,Stat9,,Stat10,,Wind1,,Wind1,
time,status,PA1M_AVG,status,PR1M_SUM,status,RH1M_AVG,status,SR1M_AVG,status,TA1M_AVG,status,W1dAve1m,status,W1sAve1m,
2008-04-15, 00:00:00,VALID,916.732,VALID,0,VALID,100,VALID,0,VALID,18.8134,VALID,171,VALID,0.380716,
2008-04-15, 00:01:00,VALID,916.712,VALID,0,VALID,100,VALID,0,VALID,18.8137,VALID,164,VALID,0,
2008-04-15, 00:02:00,VALID,916.687,VALID,0,VALID,100,VALID,0.0339617,VALID,18.8104,VALID,159,VALID,0,
2008-04-15, 00:03:00,VALID,916.672,VALID,0,VALID,100,VALID,0.0509425,VALID,18.8097,VALID,149,VALID,0,
2008-04-15, 00:04:00,VALID,916.641,VALID,0,VALID,100,VALID,0.0509425,VALID,18.8137,VALID,149,VALID,0,
2008-04-15, 00:05:00,VALID,916.645,VALID,0,VALID,100,VALID,0.0679233,VALID,18.8164,VALID,148,VALID,0,
2008-04-15, 00:06:00,VALID,916.636,VALID,0,VALID,100,VALID,0,VALID,18.8199,VALID,145,VALID,0.331692,
2008-04-15, 00:07:00,VALID,916.62,VALID,0,VALID,100,VALID,0.0169808,VALID,18.8329,VALID,148,VALID,0.14755,
2008-04-15, 00:08:00,VALID,916.598,VALID,0,VALID,100,VALID,0.0169808,VALID,18.8299,VALID,153,VALID,0.510789,
2008-04-15, 00:09:00,VALID,916.569,VALID,0,VALID,100,VALID,0.0169808,VALID,18.8167,VALID,158,VALID,0.369606,
2008-04-15, 00:10:00,VALID,916.556,VALID,0,VALID,100,VALID,0.0169808,VALID,18.8264,VALID,164,VALID,0.347752,
2008-04-15, 00:11:00,VALID,916.537,VALID,0,VALID,100,VALID,0.0169808,VALID,18.8456,VALID,170,VALID,0.783558,
2008-04-15, 00:12:00,VALID,916.519,VALID,0,VALID,100,VALID,0,VALID,18.8394,VALID,171,VALID,0.382994,
2008-04-15, 00:13:00,VALID,916.503,VALID,0,VALID,100,VALID,0.0169808,VALID,18.8558,VALID,171,VALID,0,
2008-04-15, 00:14:00,VALID,916.481,VALID,0,VALID,100,VALID,0,VALID,18.8486,VALID,171,VALID,0,
2008-04-15, 00:15:00,VALID,916.461,VALID,0,VALID,100,VALID,0.0169808,VALID,18.8656,VALID,186,VALID,0,
2008-04-15, 00:16:00,VALID,916.444,VALID,0,VALID,100,VALID,0,VALID,18.8656,VALID,186,VALID,0,
2008-04-15, 00:17:00,VALID,916.43,VALID,0,VALID,100,VALID,0.0169808,VALID,18.8686,VALID,184,VALID,0,
2008-04-15, 00:18:00,VALID,916.406,VALID,0,VALID,100,VALID,0.0339617,VALID,18.8553,VALID,182,VALID,0,
2008-04-15, 00:19:00,VALID,916.393,VALID,0,VALID,100,VALID,0.0339617,VALID,18.8586,VALID,167,VALID,0,
2008-04-15, 00:20:00,VALID,916.381,VALID,0,VALID,100,VALID,-0.0849042,VALID,18.8466,VALID,156,VALID,0,
2008-04-15, 00:21:00,VALID,916.37,VALID,0,VALID,100,VALID,-0.0679233,VALID,18.857,VALID,156,VALID,0,
2008-04-15, 00:22:00,VALID,916.358,VALID,0,VALID,100,VALID,-0.101885,VALID,18.8308,VALID,156,VALID,0,
2008-04-15, 00:23:00,VALID,916.355,VALID,0,VALID,100,VALID,-0.101885,VALID,18.8313,VALID,156,VALID,0,
2008-04-15, 00:24:00,VALID,916.352,VALID,0,VALID,100,VALID,-0.101885,VALID,18.8281,VALID,156,VALID,0,
2008-04-15, 00:25:00,VALID,916.354,VALID,0,VALID,100,VALID,-0.118866,VALID,18.8345,VALID,156,VALID,0,
2008-04-15, 00:26:00,VALID,916.353,VALID,0,VALID,100,VALID,-0.118866,VALID,18.8475,VALID,156,VALID,0,
2008-04-15, 00:27:00,VALID,916.33,VALID,0,VALID,100,VALID,-0.0849042,VALID,18.8797,VALID,156,VALID,0,
2008-04-15, 00:28:00,VALID,916.327,VALID,0,VALID,100,VALID,-0.101885,VALID,18.8897,VALID,156,VALID,0,
2008-04-15, 00:29:00,VALID,916.327,VALID,0,VALID,100,VALID,-0.101885,VALID,18.9031,VALID,156,VALID,0,
2008-04-15, 00:30:00,VALID,916.317,VALID,0,VALID,100,VALID,-0.101885,VALID,18.8929,VALID,156,VALID,0,
2008-04-15, 00:31:00,VALID,916.319,VALID,0,VALID,100,VALID,-0.101885,VALID,18.886,VALID,156,VALID,0,
2008-04-15, 00:32:00,VALID,916.324,VALID,0,VALID,100,VALID,-0.118866,VALID,18.8962,VALID,156,VALID,0,
2008-04-15, 00:33:00,VALID,916.313,VALID,0,VALID,100,VALID,-0.135847,VALID,18.8897,VALID,156,VALID,0,
2008-04-15, 00:34:00,VALID,916.296,VALID,0,VALID,100,VALID,-0.101885,VALID,18.87,VALID,156,VALID,0,
2008-04-15, 00:35:00,VALID,916.281,VALID,0,VALID,100,VALID,-0.0169808,VALID,18.8598,VALID,154,VALID,0,
2008-04-15, 00:36:00,VALID,916.258,VALID,0,VALID,100,VALID,-0.0339617,VALID,18.8463,VALID,132,VALID,0,
2008-04-15, 00:37:00,VALID,916.239,VALID,0,VALID,100,VALID,0,VALID,18.8431,VALID,132,VALID,0,
2008-04-15, 00:38:00,VALID,916.2,VALID,0,VALID,100,VALID,-0.0339617,VALID,18.8338,VALID,138,VALID,0,
2008-04-15, 00:39:00,VALID,916.169,VALID,0,VALID,100,VALID,-0.0339617,VALID,18.8463,VALID,139,VALID,0,
2008-04-15, 00:40:00,VALID,916.148,VALID,0,VALID,100,VALID,-0.0339617,VALID,18.8593,VALID,139,VALID,0,
2008-04-15, 00:41:00,VALID,916.117,VALID,0,VALID,100,VALID,-0.0169808,VALID,18.8762,VALID,140,VALID,0,
2008-04-15, 00:42:00,VALID,916.11,VALID,0,VALID,100,VALID,-0.0169808,VALID,18.8561,VALID,140,VALID,0,
2008-04-15, 00:43:00,VALID,916.076,VALID,0,VALID,100,VALID,0,VALID,18.8595,VALID,146,VALID,0,
2008-04-15, 00:44:00,VALID,916.058,VALID,0,VALID,100,VALID,-0.0339617,VALID,18.8598,VALID,165,VALID,0,
2008-04-15, 00:45:00,VALID,916.035,VALID,0,VALID,100,VALID,-0.0509425,VALID,18.8595,VALID,165,VALID,0,
2008-04-15, 00:46:00,VALID,916.013,VALID,0,VALID,100,VALID,-0.0169808,VALID,18.8591,VALID,165,VALID,0,
2008-04-15, 00:47:00,VALID,915.992,VALID,0,VALID,100,VALID,-0.0169808,VALID,18.8623,VALID,165,VALID,0,
2008-04-15, 00:48:00,VALID,915.965,VALID,0,VALID,100,VALID,-0.0339617,VALID,18.8725,VALID,165,VALID,0,
2008-04-15, 00:49:00,VALID,915.945,VALID,0,VALID,100,VALID,-0.0509425,VALID,18.8827,VALID,164,VALID,0,
2008-04-15, 00:50:00,VALID,915.923,VALID,0,VALID,100,VALID,-0.0339617,VALID,18.8755,VALID,167,VALID,0,
2008-04-15, 00:51:00,VALID,915.909,VALID,0,VALID,100,VALID,-0.101885,VALID,18.8792,VALID,158,VALID,0,
2008-04-15, 00:52:00,VALID,915.885,VALID,0,VALID,100,VALID,-0.0509425,VALID,18.8925,VALID,168,VALID,0,
2008-04-15, 00:53:00,VALID,915.853,VALID,0,VALID,100,VALID,-0.0339617,VALID,18.8855,VALID,169,VALID,0,
2008-04-15, 00:54:00,VALID,915.825,VALID,0,VALID,100,VALID,-0.0339617,VALID,18.8785,VALID,155,VALID,0,
2008-04-15, 00:55:00,VALID,915.795,VALID,0,VALID,100,VALID,-0.0339617,VALID,18.8883,VALID,153,VALID,0.426067,
2008-04-15, 00:56:00,VALID,915.779,VALID,0,VALID,100,VALID,-0.0169808,VALID,18.879,VALID,149,VALID,0.431212,
2008-04-15, 00:57:00,VALID,915.754,VALID,0,VALID,100,VALID,0,VALID,18.876,VALID,141,VALID,0.318598,
2008-04-15, 00:58:00,VALID,915.724,VALID,0,VALID,100,VALID,-0.0679233,VALID,18.876,VALID,147,VALID,0.672247,
2008-04-15, 00:59:00,VALID,915.699,VALID,0,VALID,100,VALID,-0.0509425,VALID,18.8728,VALID,147,VALID,0.040516,
2008-04-15, 01:00:00,VALID,915.672,VALID,0,VALID,100,VALID,-0.0509425,VALID,18.8725,VALID,149,VALID,0,
2008-04-15, 01:01:00,VALID,915.658,VALID,0,VALID,100,VALID,-0.0679233,VALID,18.8658,VALID,158,VALID,0,
2008-04-15, 01:02:00,VALID,915.627,VALID,0,VALID,100,VALID,-0.0679233,VALID,18.8728,VALID,145,VALID,0,
2008-04-15, 01:03:00,VALID,915.619,VALID,0,VALID,100,VALID,-0.0509425,VALID,18.8693,VALID,158,VALID,0,
2008-04-15, 01:04:00,VALID,915.599,VALID,0,VALID,100,VALID,-0.0849042,VALID,18.8693,VALID,140,VALID,0.0365234,
2008-04-15, 01:05:00,VALID,915.589,VALID,0,VALID,100,VALID,-0.0679233,VALID,18.8665,VALID,154,VALID,0.471236,
2008-04-15, 01:06:00,VALID,915.565,VALID,0,VALID,100,VALID,-0.0509425,VALID,18.8598,VALID,151,VALID,0.454545,
2008-04-15, 01:07:00,VALID,915.554,VALID,0,VALID,100,VALID,-0.0679233,VALID,18.8473,VALID,141,VALID,0.63956,
2008-04-15, 01:08:00,VALID,915.55,VALID,0,VALID,100,VALID,-0.0339617,VALID,18.8338,VALID,146,VALID,0.00285823,
2008-04-15, 01:09:00,VALID,915.539,VALID,0,VALID,100,VALID,-0.0849042,VALID,18.8209,VALID,143,VALID,1.0657,
2008-04-15, 01:10:00,VALID,915.533,VALID,0,VALID,100,VALID,-0.0679233,VALID,18.8213,VALID,136,VALID,0.952778,
2008-04-15, 01:11:00,VALID,915.529,VALID,0,VALID,100,VALID,-0.0849042,VALID,18.8014,VALID,137,VALID,1.15556,
2008-04-15, 01:12:00,VALID,915.534,VALID,0,VALID,100,VALID,-0.0849042,VALID,18.7984,VALID,130,VALID,0.888317,
2008-04-15, 01:13:00,VALID,915.518,VALID,0,VALID,100,VALID,-0.0679233,VALID,18.769,VALID,127,VALID,0.979469,
2008-04-15, 01:14:00,VALID,915.51,VALID,0,VALID,100,VALID,-0.101885,VALID,18.74,VALID,118,VALID,0.633384,
2008-04-15, 01:15:00,VALID,915.507,VALID,0,VALID,100,VALID,-0.0509425,VALID,18.7203,VALID,122,VALID,0.203658,
2008-04-15, 01:16:00,VALID,915.499,VALID,0,VALID,100,VALID,-0.0679233,VALID,18.7208,VALID,125,VALID,0.00266768,
2008-04-15, 01:17:00,VALID,915.5,VALID,0,VALID,100,VALID,-0.0679233,VALID,18.7208,VALID,131,VALID,0.805753,
2008-04-15, 01:18:00,VALID,915.499,VALID,0,VALID,100,VALID,-0.0679233,VALID,18.7205,VALID,134,VALID,1.08774,
2008-04-15, 01:19:00,VALID,915.487,VALID,0,VALID,100,VALID,-0.0339617,VALID,18.7173,VALID,138,VALID,0.976199,
2008-04-15, 01:20:00,VALID,915.464,VALID,0,VALID,100,VALID,-0.0849042,VALID,18.7238,VALID,129,VALID,0.81684,
2008-04-15, 01:21:00,VALID,915.451,VALID,0,VALID,100,VALID,-0.0679233,VALID,18.73,VALID,128,VALID,0.976017,
2008-04-15, 01:22:00,VALID,915.418,VALID,0,VALID,100,VALID,-0.0679233,VALID,18.7133,VALID,129,VALID,0.723242,
2008-04-15, 01:23:00,VALID,915.406,VALID,0,VALID,100,VALID,-0.0339617,VALID,18.7133,VALID,95,VALID,0.789253,
2008-04-15, 01:24:00,VALID,915.393,VALID,0,VALID,100,VALID,-0.0679233,VALID,18.7201,VALID,123,VALID,0.856597,
2008-04-15, 01:25:00,VALID,915.395,VALID,0,VALID,100,VALID,-0.0509425,VALID,18.7106,VALID,94,VALID,0.31157,
2008-04-15, 01:26:00,VALID,915.367,VALID,0,VALID,100,VALID,-0.0679233,VALID,18.714,VALID,92,VALID,0.313616,
2008-04-15, 01:27:00,VALID,915.37,VALID,0,VALID,100,VALID,-0.0509425,VALID,18.7008,VALID,79,VALID,0.642578,
2008-04-15, 01:28:00,VALID,915.347,VALID,0,VALID,100,VALID,-0.0169808,VALID,18.6978,VALID,97,VALID,0.950521,
2008-04-15, 01:29:00,VALID,915.334,VALID,0,VALID,100,VALID,-0.0679233,VALID,18.6682,VALID,101,VALID,0.738948,
2008-04-15, 01:30:00,VALID,915.311,VALID,0,VALID,100,VALID,-0.0169808,VALID,18.6644,VALID,101,VALID,0.935096,
2008-04-15, 01:31:00,VALID,915.278,VALID,0,VALID,100,VALID,0,VALID,18.6709,VALID,96,VALID,1.04323,
2008-04-15, 01:32:00,VALID,915.268,VALID,0,VALID,100,VALID,-0.0339617,VALID,18.6582,VALID,96,VALID,1.04902,
2008-04-15, 01:33:00,VALID,915.23,VALID,0,VALID,100,VALID,-0.0169808,VALID,18.6746,VALID,108,VALID,1.18477,
2008-04-15, 01:34:00,VALID,915.209,VALID,0,VALID,100,VALID,0.0169808,VALID,18.6839,VALID,111,VALID,1.00885,
2008-04-15, 01:35:00,VALID,915.185,VALID,0,VALID,100,VALID,0,VALID,18.6769,VALID,99,VALID,0.859756,
2008-04-15, 01:36:00,VALID,915.157,VALID,0,VALID,100,VALID,0.0169808,VALID,18.6869,VALID,108,VALID,0.00104167,
2008-04-15, 01:37:00,VALID,915.126,VALID,0,VALID,100,VALID,0,VALID,18.7096,VALID,107,VALID,0.0582217,
2008-04-15, 01:38:00,VALID,915.09,VALID,0,VALID,100,VALID,0.0339617,VALID,18.7129,VALID,96,VALID,0.00332031,
2008-04-15, 01:39:00,VALID,915.074,VALID,0,VALID,100,VALID,0,VALID,18.7031,VALID,93,VALID,0.0146723,
2008-04-15, 01:40:00,VALID,915.029,VALID,0,VALID,100,VALID,-0.0339617,VALID,18.7034,VALID,109,VALID,1.1543,
2008-04-15, 01:41:00,VALID,915.008,VALID,0,VALID,100,VALID,0,VALID,18.7323,VALID,108,VALID,1.31975,
2008-04-15, 01:42:00,VALID,915.001,VALID,0,VALID,100,VALID,0,VALID,18.7323,VALID,116,VALID,0.702381,
2008-04-15, 01:43:00,VALID,914.98,VALID,0,VALID,100,VALID,-0.0169808,VALID,18.7358,VALID,123,VALID,1.05097,
2008-04-15, 01:44:00,VALID,914.964,VALID,0,VALID,100,VALID,0,VALID,18.7423,VALID,131,VALID,1.15532,
2008-04-15, 01:45:00,VALID,914.949,VALID,0,VALID,100,VALID,-0.0169808,VALID,18.7488,VALID,137,VALID,1.07919,
2008-04-15, 01:46:00,VALID,914.924,VALID,0,VALID,100,VALID,0,VALID,18.7293,VALID,140,VALID,0.732195,
2008-04-15, 01:47:00,VALID,914.917,VALID,0,VALID,100,VALID,0,VALID,18.7293,VALID,148,VALID,0.472284,
2008-04-15, 01:48:00,VALID,914.913,VALID,0,VALID,100,VALID,0,VALID,18.7163,VALID,150,VALID,0.923549,
2008-04-15, 01:49:00,VALID,914.895,VALID,0,VALID,100,VALID,0,VALID,18.7034,VALID,150,VALID,0.643415,
2008-04-15, 01:50:00,VALID,914.874,VALID,0,VALID,100,VALID,0,VALID,18.6904,VALID,150,VALID,0.00285823,
2008-04-15, 01:51:00,VALID,914.867,VALID,0,VALID,100,VALID,0,VALID,18.6869,VALID,148,VALID,0.267624,
2008-04-15, 01:52:00,VALID,914.832,VALID,0,VALID,100,VALID,0,VALID,18.6774,VALID,159,VALID,1.06577,
2008-04-15, 01:53:00,VALID,914.818,VALID,0,VALID,100,VALID,0,VALID,18.6677,VALID,157,VALID,0.761161,
2008-04-15, 01:54:00,VALID,914.811,VALID,0,VALID,100,VALID,0.0169808,VALID,18.6677,VALID,160,VALID,0.871094,
2008-04-15, 01:55:00,VALID,914.794,VALID,0,VALID,100,VALID,0.0339617,VALID,18.6672,VALID,154,VALID,0.914993,
2008-04-15, 01:56:00,VALID,914.775,VALID,0,VALID,100,VALID,0.0339617,VALID,18.6735,VALID,152,VALID,0.745486,
2008-04-15, 01:57:00,VALID,914.765,VALID,0,VALID,100,VALID,0,VALID,18.654,VALID,153,VALID,0.530208,
2008-04-15, 01:58:00,VALID,914.77,VALID,0,VALID,100,VALID,0,VALID,18.651,VALID,151,VALID,0,
2008-04-15, 01:59:00,VALID,914.784,VALID,0,VALID,100,VALID,0,VALID,18.6415,VALID,141,VALID,0,
2008-04-15, 02:00:00,VALID,914.783,VALID,0,VALID,100,VALID,0,VALID,18.6118,VALID,133,VALID,0.208333,
2008-04-15, 02:01:00,VALID,914.78,VALID,0,VALID,100,VALID,0,VALID,18.5864,VALID,118,VALID,0.308503,
2008-04-15, 02:02:00,VALID,914.777,VALID,0,VALID,100,VALID,0,VALID,18.5342,VALID,67,VALID,0.892485,
2008-04-15, 02:03:00,VALID,914.778,VALID,0,VALID,100,VALID,0,VALID,18.5243,VALID,75,VALID,1.13542,
2008-04-15, 02:04:00,VALID,914.772,VALID,0,VALID,100,VALID,0,VALID,18.521,VALID,66,VALID,1.12295,
2008-04-15, 02:05:00,VALID,914.769,VALID,0,VALID,100,VALID,-0.0849042,VALID,18.5424,VALID,70,VALID,1.0928,
2008-04-15, 02:06:00,VALID,914.755,VALID,0,VALID,100,VALID,-0.0849042,VALID,18.5389,VALID,68,VALID,0.87314,
2008-04-15, 02:07:00,VALID,914.761,VALID,0,VALID,100,VALID,-0.0679233,VALID,18.5287,VALID,51,VALID,0.737602,
2008-04-15, 02:08:00,VALID,914.752,VALID,0,VALID,100,VALID,-0.101885,VALID,18.5648,VALID,41,VALID,0.578683,
2008-04-15, 02:09:00,VALID,914.755,VALID,0,VALID,100,VALID,-0.0849042,VALID,18.5975,VALID,41,VALID,0.496466,
2008-04-15, 02:10:00,VALID,914.762,VALID,0,VALID,100,VALID,-0.0849042,VALID,18.6,VALID,41,VALID,0.00563227,
2008-04-15, 02:11:00,VALID,914.763,VALID,0,VALID,100,VALID,-0.0849042,VALID,18.6068,VALID,26,VALID,0.136914,
2008-04-15, 02:12:00,VALID,914.765,VALID,0,VALID,100,VALID,-0.101885,VALID,18.5973,VALID,6,VALID,0.275174,
2008-04-15, 02:13:00,VALID,914.755,VALID,0,VALID,100,VALID,-0.101885,VALID,18.578,VALID,34,VALID,0.798781,
2008-04-15, 02:14:00,VALID,914.758,VALID,0,VALID,100,VALID,-0.101885,VALID,18.5588,VALID,39,VALID,0.922053,
2008-04-15, 02:15:00,VALID,914.755,VALID,0,VALID,100,VALID,-0.101885,VALID,18.5324,VALID,59,VALID,1.03516,
2008-04-15, 02:16:00,VALID,914.757,VALID,0,VALID,100,VALID,-0.101885,VALID,18.4972,VALID,71,VALID,0.975586,
2008-04-15, 02:17:00,VALID,914.766,VALID,0,VALID,100,VALID,-0.101885,VALID,18.4712,VALID,71,VALID,0.980569,
2008-04-15, 02:18:00,VALID,914.773,VALID,0,VALID,100,VALID,-0.0849042,VALID,18.4548,VALID,65,VALID,0.765831,
2008-04-15, 02:19:00,VALID,914.783,VALID,0,VALID,100,VALID,-0.135847,VALID,18.4351,VALID,64,VALID,0.511242,
2008-04-15, 02:20:00,VALID,914.786,VALID,0,VALID,100,VALID,-0.0339617,VALID,18.4441,VALID,64,VALID,0.00230824,
2008-04-15, 02:21:00,VALID,914.787,VALID,0,VALID,100,VALID,0,VALID,18.4439,VALID,64,VALID,0,
2008-04-15, 02:22:00,VALID,914.792,VALID,0,VALID,100,VALID,-0.0169808,VALID,18.4374,VALID,64,VALID,0,
2008-04-15, 02:23:00,VALID,914.793,VALID,0,VALID,100,VALID,0,VALID,18.4374,VALID,64,VALID,0,
2008-04-15, 02:24:00,VALID,914.787,VALID,0,VALID,100,VALID,-0.0169808,VALID,18.4177,VALID,127,VALID,0.0420387,
2008-04-15, 02:25:00,VALID,914.784,VALID,0,VALID,100,VALID,-0.0169808,VALID,18.4147,VALID,142,VALID,0.877418,
2008-04-15, 02:26:00,VALID,914.783,VALID,0,VALID,100,VALID,0,VALID,18.4439,VALID,142,VALID,0.907452,
2008-04-15, 02:27:00,VALID,914.77,VALID,0,VALID,100,VALID,0,VALID,18.4566,VALID,140,VALID,1.05264,
2008-04-15, 02:28:00,VALID,914.744,VALID,0,VALID,100,VALID,0,VALID,18.4634,VALID,128,VALID,0.600781,
2008-04-15, 02:29:00,VALID,914.732,VALID,0,VALID,100,VALID,-0.0339617,VALID,18.4728,VALID,123,VALID,0.513021,
2008-04-15, 02:30:00,VALID,914.715,VALID,0,VALID,100,VALID,0,VALID,18.4504,VALID,123,VALID,0.471168,
2008-04-15, 02:31:00,VALID,914.691,VALID,0,VALID,100,VALID,0,VALID,18.4374,VALID,122,VALID,0.638765,
2008-04-15, 02:32:00,VALID,914.676,VALID,0,VALID,100,VALID,0,VALID,18.4372,VALID,137,VALID,0.654576,
2008-04-15, 02:33:00,VALID,914.665,VALID,0,VALID,100,VALID,0,VALID,18.4402,VALID,146,VALID,0.0914062,
2008-04-15, 02:34:00,VALID,914.663,VALID,0,VALID,100,VALID,-0.0169808,VALID,18.4406,VALID,148,VALID,0.286882,
2008-04-15, 02:35:00,VALID,914.67,VALID,0,VALID,100,VALID,-0.0679233,VALID,18.4217,VALID,156,VALID,0.868862,
2008-04-15, 02:36:00,VALID,914.682,VALID,0,VALID,100,VALID,-0.0339617,VALID,18.4186,VALID,157,VALID,0.935082,
2008-04-15, 02:37:00,VALID,914.67,VALID,0,VALID,100,VALID,-0.0339617,VALID,18.3985,VALID,145,VALID,0.750727,
2008-04-15, 02:38:00,VALID,914.687,VALID,0,VALID,100,VALID,-0.0169808,VALID,18.4017,VALID,133,VALID,0.835938,
2008-04-15, 02:39:00,VALID,914.677,VALID,0,VALID,100,VALID,0,VALID,18.3955,VALID,129,VALID,0.796354,
2008-04-15, 02:40:00,VALID,914.692,VALID,0,VALID,100,VALID,-0.0509425,VALID,18.3957,VALID,133,VALID,0.658975,
2008-04-15, 02:41:00,VALID,914.685,VALID,0,VALID,100,VALID,-0.0339617,VALID,18.3957,VALID,135,VALID,0.0811012,
2008-04-15, 02:42:00,VALID,914.672,VALID,0,VALID,100,VALID,0,VALID,18.4084,VALID,135,VALID,0.45816,
2008-04-15, 02:43:00,VALID,914.659,VALID,0,VALID,100,VALID,-0.0509425,VALID,18.4314,VALID,135,VALID,0.381925,
2008-04-15, 02:44:00,VALID,914.64,VALID,0,VALID,100,VALID,-0.0679233,VALID,18.4409,VALID,138,VALID,0.405878,
2008-04-15, 02:45:00,VALID,914.632,VALID,0,VALID,100,VALID,-0.0679233,VALID,18.4481,VALID,145,VALID,0.127951,
2008-04-15, 02:46:00,VALID,914.618,VALID,0,VALID,100,VALID,-0.0339617,VALID,18.4312,VALID,160,VALID,0,
2008-04-15, 02:47:00,VALID,914.607,VALID,0,VALID,100,VALID,-0.0509425,VALID,18.4416,VALID,164,VALID,0,
2008-04-15, 02:48:00,VALID,914.578,VALID,0,VALID,100,VALID,-0.0169808,VALID,18.4409,VALID,163,VALID,0,
2008-04-15, 02:49:00,VALID,914.567,VALID,0,VALID,100,VALID,-0.0339617,VALID,18.4439,VALID,156,VALID,0,
2008-04-15, 02:50:00,VALID,914.55,VALID,0,VALID,100,VALID,-0.0339617,VALID,18.4444,VALID,157,VALID,0,
2008-04-15, 02:51:00,VALID,914.534,VALID,0,VALID,100,VALID,-0.0339617,VALID,18.4444,VALID,157,VALID,0,
2008-04-15, 02:52:00,VALID,914.526,VALID,0,VALID,100,VALID,-0.0169808,VALID,18.4638,VALID,158,VALID,0,
2008-04-15, 02:53:00,VALID,914.518,VALID,0,VALID,100,VALID,-0.0339617,VALID,18.4409,VALID,161,VALID,0,
2008-04-15, 02:54:01,VALID,914.515,VALID,0,VALID,100,VALID,-0.0339617,VALID,18.4217,VALID,164,VALID,0,
2008-04-15, 02:55:00,VALID,914.5,VALID,0,VALID,100,VALID,-0.0169808,VALID,18.4054,VALID,161,VALID,0,
2008-04-15, 02:56:00,VALID,914.494,VALID,0,VALID,100,VALID,-0.0339617,VALID,18.3996,VALID,147,VALID,0,
2008-04-15, 02:57:00,VALID,914.492,VALID,0,VALID,100,VALID,-0.0509425,VALID,18.3994,VALID,145,VALID,0,
2008-04-15, 02:58:00,VALID,914.483,VALID,0,VALID,100,VALID,-0.0509425,VALID,18.386,VALID,148,VALID,0,
2008-04-15, 02:59:00,VALID,914.48,VALID,0,VALID,100,VALID,-0.0509425,VALID,18.3827,VALID,158,VALID,0.582508,
2008-04-15, 03:00:00,VALID,914.485,VALID,0,VALID,100,VALID,-0.0169808,VALID,18.3952,VALID,165,VALID,0.702934,
2008-04-15, 03:01:00,VALID,914.472,VALID,0,VALID,100,VALID,-0.0339617,VALID,18.4091,VALID,149,VALID,0.546693,
2008-04-15, 03:02:00,VALID,914.466,VALID,0,VALID,100,VALID,-0.0509425,VALID,18.3922,VALID,150,VALID,0.611555,
2008-04-15, 03:03:00,VALID,914.45,VALID,0,VALID,100,VALID,-0.0339617,VALID,18.4084,VALID,141,VALID,0.328835,
2008-04-15, 03:04:01,VALID,914.462,VALID,0,VALID,100,VALID,-0.0339617,VALID,18.4214,VALID,154,VALID,0.662829,
2008-04-15, 03:05:00,VALID,914.461,VALID,0,VALID,100,VALID,0.0679233,VALID,18.417,VALID,157,VALID,0.759766,
2008-04-15, 03:06:00,VALID,914.468,VALID,0,VALID,100,VALID,0.0849042,VALID,18.4203,VALID,117,VALID,0.18388,
2008-04-15, 03:07:00,VALID,914.474,VALID,0,VALID,100,VALID,0.0849042,VALID,18.4135,VALID,139,VALID,0,
2008-04-15, 03:08:00,VALID,914.493,VALID,0,VALID,100,VALID,0.0849042,VALID,18.4071,VALID,147,VALID,0,
2008-04-15, 03:09:01,VALID,914.506,VALID,0,VALID,100,VALID,0.0849042,VALID,18.4101,VALID,148,VALID,0,
2008-04-15, 03:10:01,VALID,914.511,VALID,0,VALID,100,VALID,0.0849042,VALID,18.4133,VALID,142,VALID,0,
2008-04-15, 03:11:00,VALID,914.517,VALID,0,VALID,100,VALID,0.0849042,VALID,18.4036,VALID,137,VALID,0,
2008-04-15, 03:12:01,VALID,914.511,VALID,0,VALID,100,VALID,0.0679233,VALID,18.3971,VALID,135,VALID,0,
2008-04-15, 03:13:01,VALID,914.5,VALID,0,VALID,100,VALID,0.0679233,VALID,18.3936,VALID,131,VALID,0,
2008-04-15, 03:14:01,VALID,914.495,VALID,0,VALID,100,VALID,0.0849042,VALID,18.4135,VALID,122,VALID,0,
2008-04-15, 03:15:00,VALID,914.479,VALID,0,VALID,100,VALID,0.101885,VALID,18.4267,VALID,123,VALID,0,
2008-04-15, 03:16:00,VALID,914.465,VALID,0,VALID,100,VALID,0.0849042,VALID,18.4003,VALID,115,VALID,0.569382,
2008-04-15, 03:17:00,VALID,914.448,VALID,0,VALID,100,VALID,0.0679233,VALID,18.3846,VALID,99,VALID,0.559261,
2008-04-15, 03:18:00,VALID,914.429,VALID,0,VALID,100,VALID,0.0679233,VALID,18.3582,VALID,97,VALID,0.0949653,
2008-04-15, 03:19:00,VALID,914.412,VALID,0,VALID,100,VALID,0.0679233,VALID,18.3619,VALID,110,VALID,0.233854,
2008-04-15, 03:20:00,VALID,914.399,VALID,0,VALID,100,VALID,-0.0339617,VALID,18.382,VALID,110,VALID,0,
2008-04-15, 03:21:00,VALID,914.402,VALID,0,VALID,100,VALID,-0.0169808,VALID,18.4082,VALID,117,VALID,0.000976563,
2008-04-15, 03:22:00,VALID,914.405,VALID,0,VALID,100,VALID,-0.0679233,VALID,18.4082,VALID,118,VALID,0.00603693,
2008-04-15, 03:23:01,VALID,914.395,VALID,0,VALID,100,VALID,-0.0339617,VALID,18.4244,VALID,120,VALID,0,
2008-04-15, 03:24:00,VALID,914.392,VALID,0,VALID,100,VALID,-0.0169808,VALID,18.4536,VALID,127,VALID,0,
2008-04-15, 03:25:01,VALID,914.386,VALID,0,VALID,100,VALID,-0.0679233,VALID,18.4634,VALID,138,VALID,0,
2008-04-15, 03:26:00,VALID,914.38,VALID,0,VALID,100,VALID,-0.0849042,VALID,18.4666,VALID,138,VALID,0,
2008-04-15, 03:27:00,VALID,914.367,VALID,0,VALID,100,VALID,-0.0339617,VALID,18.4569,VALID,138,VALID,0,
2008-04-15, 03:28:01,VALID,914.36,VALID,0,VALID,100,VALID,-0.0679233,VALID,18.4671,VALID,138,VALID,0,
2008-04-15, 03:29:00,VALID,914.343,VALID,0,VALID,100,VALID,-0.0339617,VALID,18.4701,VALID,138,VALID,0,
2008-04-15, 03:30:01,VALID,914.324,VALID,0,VALID,100,VALID,-0.0509425,VALID,18.4569,VALID,138,VALID,0,
2008-04-15, 03:31:01,VALID,914.324,VALID,0,VALID,100,VALID,-0.0339617,VALID,18.4634,VALID,138,VALID,0,
2008-04-15, 03:32:00,VALID,914.325,VALID,0,VALID,100,VALID,-0.0169808,VALID,18.4506,VALID,138,VALID,0,
2008-04-15, 03:33:01,VALID,914.332,VALID,0,VALID,100,VALID,-0.0849042,VALID,18.4179,VALID,138,VALID,0,
2008-04-15, 03:34:00,VALID,914.343,VALID,0,VALID,100,VALID,-0.0679233,VALID,18.4182,VALID,138,VALID,0,
2008-04-15, 03:35:00,VALID,914.36,VALID,0,VALID,100,VALID,-0.0509425,VALID,18.4212,VALID,137,VALID,0.875182,
2008-04-15, 03:36:00,VALID,914.377,VALID,0,VALID,100,VALID,-0.0509425,VALID,18.4471,VALID,130,VALID,0.759718,
2008-04-15, 03:37:00,VALID,914.388,VALID,0,VALID,100,VALID,-0.0849042,VALID,18.4342,VALID,129,VALID,0.718192,
2008-04-15, 03:38:01,VALID,914.406,VALID,0,VALID,100,VALID,-0.0509425,VALID,18.4372,VALID,129,VALID,0.732955,
2008-04-15, 03:39:01,VALID,914.419,VALID,0,VALID,100,VALID,-0.0169808,VALID,18.4504,VALID,130,VALID,0.741508,
2008-04-15, 03:40:00,VALID,914.432,VALID,0,VALID,100,VALID,-0.0339617,VALID,18.4539,VALID,139,VALID,0.696429,
2008-04-15, 03:41:01,VALID,914.463,VALID,0,VALID,100,VALID,0,VALID,18.4636,VALID,151,VALID,0.383507,
2008-04-15, 03:42:00,VALID,914.465,VALID,0,VALID,100,VALID,-0.0849042,VALID,18.4773,VALID,144,VALID,0.308117,
2008-04-15, 03:43:01,VALID,914.47,VALID,0,VALID,100,VALID,-0.0509425,VALID,18.4701,VALID,142,VALID,0.00607639,
2008-04-15, 03:44:01,VALID,914.496,VALID,0,VALID,100,VALID,-0.0679233,VALID,18.4474,VALID,152,VALID,0,